Hazlehurst, GA

2:04 PM EDT on March 29, 2017 (GMT -0400)
Hazlehurst

Weather History for KAZE - May, 2014

Change the Weather History Date:

Thursday, May 8, 2014

  Actual Average Record
Temperature  
Mean Temperature 78 °F -  
Max Temperature 89 °F 81 °F 90 °F (2016)
Min Temperature 67 °F 59 °F 49 °F (2013)
Cooling Degree Days 13    
Growing Degree Days 28 (Base 50)    
Moisture  
Dew Point 63 °F    
Average Humidity 67    
Maximum Humidity 98    
Minimum Humidity 31    
Precipitation  
Precipitation 0.00 in - - ()
Sea Level Pressure  
Sea Level Pressure 30.17 in    
Wind  
Wind Speed 5 mph (South)    
Max Wind Speed 7 mph    
Max Gust Speed -    
Visibility 10 miles    
Events      
Averages and records for this station are not official NWS values.
T = Trace of Precipitation, MM = Missing Value Source: NWS Daily Summary

Daily Weather History Graph

Daily Weather History Graph

Search for Another Location

Airport or City:

Trip Planner

Search our weather history database for the weather conditions in past years. The results will help you decide how hot, cold, wet, or windy it might be!

Date:

Astronomy

May. 08, 2014 Rise Set
Actual Time 6:38 AM EDT 8:15 PM EDT
Civil Twilight 6:12 AM EDT 8:42 PM EDT
Nautical Twilight 5:40 AM EDT 9:14 PM EDT
Astronomical Twilight 5:07 AM EDT 9:47 PM EDT
Moon 2:36 PM EDT (5/8) 2:46 AM EDT (5/8)
Length of Visible Light 14h 29m
Length of Day
13h 37m
Waxing Gibbous, 64% of the Moon is Illuminated
May 8
Waxing Gibbous
May 14
Full
May 21
Last Quarter
May 28
New
Jun 5
First Quarter

Hourly Weather History & Observations

Time (EDT) Temp. Heat Index Dew Point Humidity Pressure Visibility Wind Dir Wind Speed Gust Speed Precip Events Conditions
12:15 AM 72.5 °F - 63.3 °F 73% 30.13 in 10.0 mi SSE 4.6 mph - N/A   Clear
12:35 AM 72.3 °F - 63.5 °F 74% 30.12 in 10.0 mi SSE 5.8 mph - N/A   Clear
12:55 AM 72.1 °F - 63.7 °F 75% 30.13 in 10.0 mi SSE 5.8 mph - N/A   Clear
1:15 AM 71.8 °F - 63.9 °F 76% 30.13 in 10.0 mi SSE 6.9 mph - N/A   Clear
1:35 AM 71.2 °F - 64.2 °F 78% 30.13 in 10.0 mi South 4.6 mph - N/A   Clear
1:55 AM 70.7 °F - 64.4 °F 80% 30.13 in 10.0 mi SSE 4.6 mph - N/A   Clear
2:15 AM 70.3 °F - 64.8 °F 82% 30.13 in 10.0 mi South 6.9 mph - N/A   Clear
2:35 AM 70.0 °F - 65.3 °F 85% 30.12 in 10.0 mi South 5.8 mph - N/A   Clear
2:55 AM 69.4 °F - 65.5 °F 87% 30.12 in 10.0 mi South 5.8 mph - N/A   Clear
3:15 AM 69.3 °F - 65.8 °F 89% 30.12 in 10.0 mi South 6.9 mph - N/A   Clear
3:35 AM 69.1 °F - 66.0 °F 90% 30.12 in 10.0 mi South 5.8 mph - N/A   Clear
3:55 AM 68.9 °F - 66.4 °F 92% 30.13 in 10.0 mi South 4.6 mph - N/A   Clear
4:15 AM 68.9 °F - 66.4 °F 92% 30.13 in 10.0 mi South 4.6 mph - N/A   Clear
4:35 AM 68.5 °F - 66.6 °F 93% 30.14 in 10.0 mi South 4.6 mph - N/A   Clear
4:55 AM 68.2 °F - 66.4 °F 94% 30.14 in 10.0 mi South 4.6 mph - N/A   Clear
5:15 AM 68.0 °F - 66.4 °F 95% 30.15 in 10.0 mi South 4.6 mph - N/A   Clear
5:35 AM 67.8 °F - 66.4 °F 95% 30.15 in 10.0 mi South 4.6 mph - N/A   Clear
5:55 AM 67.3 °F - 66.2 °F 96% 30.15 in 10.0 mi South 3.5 mph - N/A   Clear
6:15 AM 67.1 °F - 66.2 °F 97% 30.15 in 10.0 mi South 4.6 mph - N/A   Clear
6:35 AM 67.1 °F - 66.2 °F 97% 30.16 in 10.0 mi South 4.6 mph - N/A   Clear
6:55 AM 67.1 °F - 66.4 °F 98% 30.17 in 10.0 mi South 4.6 mph - N/A   Clear
7:15 AM 67.1 °F - 66.6 °F 98% 30.17 in 10.0 mi South 4.6 mph - N/A   Clear
7:35 AM 68.0 °F - 67.1 °F 97% 30.19 in 10.0 mi SSW 4.6 mph - N/A   Clear
7:55 AM 69.3 °F - 67.6 °F 95% 30.19 in 10.0 mi South 4.6 mph - N/A   Clear
8:15 AM 70.3 °F - 68.0 °F 92% 30.20 in 10.0 mi South 4.6 mph - N/A   Clear
8:35 AM 72.0 °F - 68.2 °F 88% 30.20 in 10.0 mi SSW 5.8 mph - N/A   Clear
8:55 AM 74.1 °F - 68.2 °F 82% 30.21 in 10.0 mi SSW 4.6 mph - N/A   Clear
9:15 AM 76.1 °F - 67.8 °F 75% 30.22 in 10.0 mi SW 4.6 mph - N/A   Clear
9:35 AM 77.7 °F - 67.5 °F 71% 30.22 in 10.0 mi SSW 5.8 mph - N/A   Clear
9:55 AM 79.0 °F - 66.6 °F 66% 30.23 in 10.0 mi South 5.8 mph - N/A   Clear
10:15 AM 80.1 °F 81.9 °F 65.1 °F 60% 30.22 in 10.0 mi SW 5.8 mph - N/A   Clear
10:35 AM 81.7 °F 83.2 °F 64.0 °F 55% 30.23 in 10.0 mi SW 5.8 mph - N/A   Clear
10:55 AM 82.4 °F 83.4 °F 62.8 °F 51% 30.23 in 10.0 mi SSW 5.8 mph - N/A   Clear
11:15 AM 83.3 °F 84.3 °F 63.0 °F 50% 30.22 in 10.0 mi SSW 6.9 mph - N/A   Clear
11:35 AM 83.7 °F 84.3 °F 62.2 °F 48% 30.22 in 10.0 mi SW 4.6 mph - N/A   Clear
11:55 AM 84.0 °F 84.5 °F 62.1 °F 47% 30.22 in 10.0 mi WSW 3.5 mph - N/A   Clear
12:15 PM 84.7 °F 85.4 °F 62.4 °F 47% 30.21 in 10.0 mi South 4.6 mph - N/A   Clear
12:35 PM 85.6 °F 85.9 °F 61.7 °F 44% 30.20 in 10.0 mi SSW 3.5 mph - N/A   Clear
12:55 PM 85.8 °F 85.9 °F 61.0 °F 43% 30.20 in 10.0 mi SSW 5.8 mph - N/A   Clear
1:15 PM 86.2 °F 85.9 °F 59.9 °F 41% 30.20 in 10.0 mi SSW 5.8 mph - N/A   Clear
1:35 PM 87.1 °F 86.5 °F 59.5 °F 39% 30.20 in 10.0 mi SSW 4.6 mph - N/A   Clear
1:55 PM 87.4 °F 86.9 °F 59.4 °F 39% 30.19 in 10.0 mi South 5.8 mph - N/A   Clear
2:15 PM 87.8 °F 86.7 °F 57.7 °F 36% 30.18 in 10.0 mi SSW 3.5 mph - N/A   Clear
2:35 PM 88.2 °F 87.3 °F 58.5 °F 37% 30.17 in 10.0 mi Calm Calm - N/A   Clear
2:55 PM 88.3 °F 87.6 °F 59.2 °F 37% 30.17 in 10.0 mi SE 6.9 mph - N/A   Clear
3:15 PM 88.9 °F 87.7 °F 58.3 °F 35% 30.16 in 10.0 mi South 4.6 mph - N/A   Clear
3:35 PM 89.2 °F 87.7 °F 56.5 °F 33% 30.15 in 10.0 mi South 4.6 mph - N/A   Clear
3:55 PM 89.2 °F 87.7 °F 56.3 °F 33% 30.14 in 10.0 mi SSW 4.6 mph - N/A   Clear
4:35 PM 89.8 °F 87.9 °F 55.2 °F 31% 30.13 in 10.0 mi South 5.8 mph - N/A   Clear
4:55 PM 89.8 °F 88.1 °F 56.5 °F 32% 30.12 in 10.0 mi South 5.8 mph - N/A   Clear
5:15 PM 89.8 °F 88.1 °F 55.9 °F 32% 30.12 in 10.0 mi South 5.8 mph - N/A   Clear
5:35 PM 89.4 °F 87.7 °F 55.6 °F 32% 30.12 in 10.0 mi SE 5.8 mph - N/A   Clear
5:55 PM 89.1 °F 87.5 °F 56.7 °F 33% 30.12 in 10.0 mi SE 4.6 mph - N/A   Clear
6:15 PM 88.7 °F 87.3 °F 56.8 °F 34% 30.12 in 10.0 mi SSE 3.5 mph - N/A   Clear
11:15 PM 75.0 °F - 66.4 °F 74% 30.17 in 10.0 mi SSE 6.9 mph - N/A   Clear
11:35 PM 74.5 °F - 66.7 °F 77% 30.16 in 10.0 mi SSE 5.8 mph - N/A   Clear
11:55 PM 73.9 °F - 67.1 °F 79% 30.16 in 10.0 mi SSE 4.6 mph - N/A   Clear